CAPE
3 2 2 1 1 0 1 1 1 1 0 0 0 0 0 0 0 0 0 0 0 0 0 0 0 0 0 0 0 0 1175 477 0 0 0 0 0 0 0 0 0 2 0 8 1 0 0
2 3 2 1 1 1 1 0 0 0 0 0 0 0 0 0 0 0 0 0 0 0 0 0 0 0 0 0 0 0 0 0 0 0 0 0 0 0 0 0 0 0 0 0 0 0 2
0 1 2 2 2 1 1 0 0 0 0 0 0 0 0 0 0 0 0 0 0 0 0 0 0 0 0 0 0 0 0 0 0 0 0 0 0 0 0 0 0 0 0 0 0 0 4
0 0 1 1 1 1 1 1 0 0 0 0 0 0 0 0 0 0 0 0 0 0 0 0 0 0 0 0 0 0 0 0 0 0 0 0 0 0 0 0 0 0 0 0 0 0 1
0 0 0 0 0 0 0 0 0 0 0 0 0 0 0 0 0 0 0 0 0 0 0 0 0 0 0 0 0 0 0 0 0 0 0 0 0 0 0 0 0 0 0 0 0 0 1
0 0 0 0 0 0 0 0 0 0 0 0 0 0 0 0 0 0 0 0 0 0 0 0 0 0 0 0 0 0 0 0 0 0 0 0 0 0 0 0 0 0 0 0 0 0 2
0 0 0 0 0 0 0 0 0 0 0 0 0 0 0 0 0 0 0 0 0 0 0 0 0 0 0 0 0 0 0 0 0 0 0 0 0 0 0 0 0 0 0 0 0 0 0
0 0 0 0 0 0 0 0 0 0 0 0 0 0 0 0 0 0 0 0 0 0 0 0 0 0 0 0 0 0 0 0 0 0 0 0 0 0 0 0 0 0 0 0 0 0 0
0 0 0 0 0 0 0 0 0 0 0 0 0 0 0 0 0 0 0 0 0 0 0 0 0 0 0 0 0 0 0 0 0 0 0 0 0 0 0 0 0 0 0 0 0 0 0
0 0 0 0 0 0 0 0 0 0 0 0 0 0 0 0 0 0 0 0 0 0 0 0 0 0 0 0 0 0 0 0 0 0 0 0 0 0 0 0 0 0 0 0 0 0 0
0 0 0 0 0 0 0 0 0 0 0 0 0 0 0 0 0 0 0 0 0 0 0 0 0 0 0 0 0 0 0 0 0 0 0 0 0 0 0 0 0 0 0 0 0 0 0
0 0 0 0 0 0 0 0 0 0 0 0 0 0 0 0 0 0 0 0 0 0 0 0 0 0 0 0 0 0 0 0 0 0 0 0 0 0 0 0 0 0 0 0 0 0 0
0 0 0 0 0 0 0 0 0 0 0 0 0 0 0 0 0 0 0 0 0 0 0 0 0 0 2 0 0 0 0 3 0 0 0 0 0 0 0 0 0 0 0 0 0 0 0
0 0 0 0 0 0 0 0 0 0 0 0 0 0 0 0 0 0 0 0 0 0 0 0 0 25 12 7 2 0 0 44 19 0 0 0 0 0 0 0 0 0 0 0 1 0 1
0 0 0 0 0 0 0 0 0 0 0 0 0 0 0 0 0 0 0 0 0 0 0 0 17 13 33 6 14 1 0 20 12 1 15 3 0 0 0 0 0 0 0 0 0 0 0
0 0 0 0 0 0 0 0 0 0 0 0 0 0 0 0 0 0 0 0 0 0 0 0 24 14 33 37 7 1 9 6 19 22 45 15 42 0 0 11 5 0 0 0 0 11 12
1 0 0 0 0 0 0 0 0 0 0 0 0 0 0 0 0 0 0 0 0 0 0 0 1 0 1 4 10 6 14 1 13 10 4 13 148 3 0 5 6 7 0 0 1 7 9
0 1 0 0 0 0 0 0 0 0 0 0 0 0 0 0 0 0 0 0 0 0 0 0 0 0 0 0 0 27 34 43 7 24 4 8 14 45 0 3 14 0 1 0 3 0 27
0 0 0 0 0 0 0 0 0 0 0 0 0 0 0 0 0 0 1 1 0 0 0 0 0 0 0 0 0 0 0 0 0 5 230 317 40 39 49 35 9 0 0 0 74 111 61
2 0 0 0 0 0 0 0 0 0 0 0 0 0 0 0 0 0 0 0 3 0 0 0 0 0 0 0 0 0 0 0 0 0 859 160 116 545 58 85 99 147 8 0 40 183 36
5 0 0 0 0 0 0 0 0 0 0 0 0 0 0 19 23 24 0 0 1 1 4 0 0 0 0 0 0 0 0 0 0 0 0 152 710 294 39 2 8 0 0 0 3 5 29
8 2 1 0 0 0 0 0 0 0 0 0 0 0 0 0 0 15 9 0 1 0 13 53 39 0 0 2 0 0 0 0 11 76 2 331 716 459 142 68 77 0 18 52 33 0 0
2 8 2 0 0 0 0 0 0 0 0 0 0 0 0 0 0 74 82 26 7 19 1 8 41 19 2 1 104 32 0 0 0 292 306 453 844 648 386 36 120 39 57 301 27 61 315
4 4 4 1 0 0 0 0 0 0 0 0 0 0 0 0 0 37 43 19 42 29 13 1 21 21 185 410 194 20 0 0 0 53 400 85 131 656 401 584 262 121 338 942 808 1464 1525
4 2 5 3 1 0 0 0 0 0 0 0 0 0 0 0 0 0 10 8 18 13 26 34 7 120 186 230 149 121 58 38 0 19 197 247 507 275 244 104 115 237 162 439 1324 1339 1266
1 5 4 6 2 1 0 0 0 0 0 0 0 0 0 0 0 0 0 6 30 0 5 24 29 167 125 196 347 221 74 11 4 55 31 78 380 193 316 123 116 449 2 0 70 1569 1100
1 4 3 4 3 1 0 0 0 0 0 0 0 0 0 0 0 0 0 0 0 0 0 25 19 133 73 173 345 208 219 319 142 178 530 158 450 135 96 0 44 805 371 695 171 1253 888
3 1 1 1 1 1 0 0 0 0 0 0 0 0 0 0 0 0 0 0 0 0 0 0 17 241 271 306 15 68 302 420 228 53 351 493 262 203 293 174 213 793 1037 1538 1417 1096 759
2 1 0 0 1 1 1 0 0 0 0 0 0 0 0 0 0 0 0 0 0 0 0 0 20 0 345 126 489 105 277 417 209 85 300 220 7 772 1129 1254 1294 560 615 474 591 548 535
CIN
0 0 0 0 0 0 0 0 0 0 0 0 0 0 0 0 0 0 0 0 0 0 0 0 0 0 0 0 0 0 -690 -779 0 0 0 0 0 0 0 0 0 -1 0 0 -2 0 0
0 0 0 0 0 0 0 0 0 0 0 0 0 0 0 0 0 0 0 0 0 0 0 0 0 0 0 0 0 0 0 0 0 0 0 0 0 0 0 0 0 0 0 0 0 0 -2
0 0 0 0 0 0 0 0 0 0 0 0 0 0 0 0 0 0 0 0 0 0 0 0 0 0 0 0 0 0 0 0 0 0 0 0 0 0 0 0 0 0 0 0 0 0 -1
0 0 0 0 0 0 0 0 0 0 0 0 0 0 0 0 0 0 0 0 0 0 0 0 0 0 0 0 0 0 0 0 0 0 0 0 0 0 0 0 0 0 0 0 0 0 -1
0 0 0 0 0 0 0 0 0 0 0 0 0 0 0 0 0 0 0 0 0 0 0 0 0 0 0 0 0 0 0 0 0 0 0 0 0 0 0 0 0 0 0 0 0 0 -3
0 0 0 0 0 0 0 0 0 0 0 0 0 0 0 0 0 0 0 0 0 0 0 0 0 0 0 0 0 0 0 0 0 0 0 0 0 0 0 0 0 0 0 0 0 0 -2
0 0 0 0 0 0 0 0 0 0 0 0 0 0 0 0 0 0 0 0 0 0 0 0 0 0 0 0 0 0 0 0 0 0 0 0 0 0 0 0 0 0 0 0 0 0 0
0 0 0 0 0 0 0 0 0 0 0 0 0 0 0 0 0 0 0 0 0 0 0 0 0 0 0 0 0 0 0 0 0 0 0 0 0 0 0 0 0 0 0 0 0 0 0
0 0 0 0 0 0 0 0 0 0 0 0 0 0 0 0 0 0 0 0 0 0 0 0 0 0 0 0 0 0 0 0 0 0 0 0 0 0 0 0 0 0 0 0 0 0 0
0 0 0 0 0 0 0 0 0 0 0 0 0 0 0 0 0 0 0 0 0 0 0 0 0 0 0 0 0 0 0 0 0 0 0 0 0 0 0 0 0 0 0 0 0 0 0
0 0 0 0 0 0 0 0 0 0 0 0 0 0 0 0 0 0 0 0 0 0 0 0 0 0 0 0 0 0 0 0 0 0 0 0 0 0 0 0 0 0 0 0 0 0 0
0 0 0 0 0 0 0 0 0 0 0 0 0 0 0 0 0 0 0 0 0 0 0 0 0 0 0 0 0 0 0 0 0 0 0 0 0 0 0 0 0 0 0 0 0 0 0
0 0 0 0 0 0 0 0 0 0 0 0 0 0 0 0 0 0 0 0 0 0 0 0 0 0 0 0 0 0 0 -1 0 0 0 0 0 0 0 0 0 0 0 0 0 0 0
0 0 0 0 0 0 0 0 0 0 0 0 0 0 0 0 0 0 0 0 0 0 0 0 0 -2 -2 -1 -1 0 0 -1 -2 0 0 0 0 0 0 0 0 0 0 0 0 0 -1
0 0 0 0 0 0 0 0 0 0 0 0 0 0 0 0 0 0 0 0 0 0 0 -1 -23 -30 -2 -10 -4 -6 0 -1 -5 -1 0 0 0 0 -1 0 0 0 0 0 0 0 -1
-3 0 0 0 0 0 0 0 0 0 0 0 0 0 0 0 0 0 0 0 0 0 0 -1 -8 -28 -2 -1 -7 -15 -9 -5 -6 -5 0 -2 0 0 -1 -4 -7 0 0 0 0 -2 -2
-6 0 0 0 0 0 0 0 0 0 0 0 0 0 0 0 0 0 0 0 0 0 0 0 -1 0 -7 -28 -27 -21 -25 -3 -7 -2 -3 -1 0 0 0 -14 -5 -5 0 0 0 -1 -1
0 0 0 0 0 0 0 0 0 0 0 0 0 0 0 0 0 0 0 0 0 0 0 0 0 0 0 0 0 -10 -27 -3 -42 -31 -8 -7 -1 0 -1 -10 -12 -1 -2 -1 0 -1 -4
0 0 -5 0 0 0 0 0 0 0 0 0 0 0 0 0 0 0 -1 0 0 0 0 0 0 0 0 0 0 0 0 0 -14 -36 -35 -22 -2 -1 -2 -7 -13 0 0 -1 -1 -7 -14
0 0 0 0 0 0 0 0 0 0 0 0 0 0 0 0 0 0 0 0 -1 -1 0 0 0 0 0 0 0 0 0 0 -1 0 -171 -73 -12 -5 -2 -3 -5 -6 -3 -3 -2 -1 -2
-3 0 0 0 0 0 0 0 0 0 0 0 0 0 0 -4 -3 -1 0 0 -1 -1 -1 0 0 0 0 0 0 0 0 0 0 -1 0 -18 -8 -6 -4 -42 -26 0 0 -2 -6 -20 -10
-3 -2 -1 0 0 0 0 0 0 0 0 0 0 0 0 0 -1 -27 -11 -1 0 -1 -8 -3 -2 -1 0 -1 0 0 0 0 -18 -4 -72 -35 -9 -12 -13 -5 -2 -1 -15 -7 -8 -1 0
-2 0 -2 0 0 0 0 0 0 0 0 0 0 0 0 0 0 -8 -1 -6 -1 -1 -2 -7 -5 -5 -2 -3 -4 -5 0 0 0 -3 -27 -90 -5 -4 -6 -183 -155 -34 -1 -60 -33 -23 -12
-1 -1 -3 0 0 0 0 0 0 0 0 0 0 0 0 0 0 -2 -4 -13 -1 -1 -11 -16 -26 -3 -2 -2 -5 -50 0 0 0 -6 -63 -285 -230 -10 -10 -2 0 -76 -118 -121 -18 -34 -116
-1 -1 -1 -4 0 0 0 0 0 0 0 0 0 0 0 0 0 -2 -1 -46 -1 -8 -2 -2 -2 -4 -14 -11 -12 -28 -37 -37 0 -9 -1 -26 -5 -14 -13 -11 -19 -114 -298 -319 -16 -71 -11
0 -5 -3 -3 0 0 0 0 0 0 0 0 0 0 0 0 0 0 0 -34 -4 0 0 -8 -32 -10 -10 -2 -4 -1 -9 -11 -10 -4 -7 -3 -1 -23 -20 -29 -4 -209 -655 0 -297 -9 -10
-1 -2 -5 -1 0 0 0 0 0 0 0 0 0 0 0 0 0 0 0 0 0 0 0 -10 -34 -27 -39 0 -25 -4 -17 -7 -2 -7 -2 -2 -5 -15 -12 0 -24 -9 -107 -62 -39 -10 -76
-4 -3 -2 -1 0 0 0 0 0 0 0 0 0 0 0 0 0 0 0 0 0 0 0 0 -3 -7 -4 -3 -154 -91 -41 -7 -34 -235 -60 -59 -70 -2 -5 -1 -4 -30 -17 -46 -65 -129 -184
-3 -4 0 0 0 0 0 0 0 0 0 0 0 0 0 0 0 0 0 0 0 0 0 0 -54 0 -1 -4 -1 -105 -68 -16 -63 -161 -50 -23 -164 -7 -10 -13 -10 -83 -85 -102 -80 -139 -166
Wind_Speed
15 15 16 16 17 17 18 18 18 18 19 20 21 21 21 22 22 22 21 21 22 20 18 18 17 15 11 9 17 8 7 8 12 13 16 17 17 17 16 16 19 17 13 14 12 19 4
14 15 15 16 16 17 17 18 19 20 19 20 21 21 22 23 22 22 23 22 22 21 19 17 15 12 7 16 5 11 11 13 12 15 17 16 16 16 19 17 18 18 19 15 17 22 12
14 14 14 15 15 17 18 18 19 19 20 21 21 22 23 23 25 25 24 24 23 21 20 17 11 6 11 19 11 11 11 12 15 16 16 16 15 17 17 18 21 20 18 16 19 21 10
13 13 14 14 15 16 17 17 19 20 21 21 21 22 23 24 25 26 27 28 25 22 19 15 6 8 10 18 12 13 13 14 15 14 16 15 9 13 18 17 21 22 22 15 18 21 6
13 13 14 14 15 15 16 17 18 19 19 21 22 24 24 24 25 27 28 31 29 21 12 9 6 9 18 1 15 15 15 17 16 16 13 12 9 14 17 18 17 17 16 20 21 18 5
12 13 13 15 16 17 17 18 19 19 18 20 21 22 24 25 26 27 31 32 11 5 7 10 11 11 18 21 16 16 17 18 16 14 14 15 11 14 15 14 14 18 17 18 16 12 15
10 11 12 13 13 14 16 17 19 19 19 21 21 23 26 27 27 26 18 12 6 7 10 15 11 13 23 6 9 13 20 18 19 18 18 17 14 15 20 20 20 19 17 18 17 16 11
10 10 11 12 13 13 14 15 16 17 19 21 23 25 26 29 30 28 11 9 7 8 13 18 23 26 25 23 12 18 16 21 21 21 20 19 19 21 20 19 18 13 13 16 16 15 13
10 10 10 11 12 13 14 15 16 18 20 20 21 23 25 30 31 12 11 14 9 13 11 22 23 26 26 25 21 18 20 20 21 22 21 22 21 23 23 17 17 13 16 17 17 16 14
10 10 11 12 13 14 15 16 17 18 20 21 21 22 24 30 9 14 12 10 11 12 10 18 24 31 29 29 29 26 23 21 23 25 24 20 21 21 17 13 13 16 18 19 16 16 11
11 11 11 12 13 13 14 15 17 18 19 21 21 21 22 10 13 9 16 13 13 9 9 12 19 29 30 33 27 24 26 26 26 25 22 21 22 20 17 18 13 15 17 16 14 11 15
12 11 11 11 11 12 13 15 17 18 20 23 24 22 20 11 8 16 16 13 10 9 14 14 21 10 25 27 27 27 24 28 25 28 26 25 22 21 17 18 16 16 17 17 12 13 14
13 13 12 11 10 11 12 15 16 18 21 24 26 27 15 10 9 14 12 9 9 11 8 20 23 20 17 20 22 26 28 28 25 23 21 27 26 24 21 11 14 13 15 11 12 13 14
13 13 12 11 10 10 11 14 16 18 21 24 27 33 8 10 10 12 9 10 15 12 21 19 25 22 22 19 23 24 27 24 25 27 19 21 22 25 23 20 16 16 14 12 16 14 11
13 13 13 11 10 10 10 13 15 18 21 24 31 10 9 13 13 7 8 11 14 15 22 21 19 21 22 18 16 23 28 27 25 26 23 21 28 20 26 25 21 19 18 16 18 19 15
12 13 12 11 10 9 10 12 15 19 21 22 10 11 12 9 6 7 9 15 20 24 24 22 19 18 17 18 18 21 20 18 30 31 24 23 22 25 25 22 26 25 16 16 12 16 16
11 12 12 11 9 9 9 11 14 18 22 27 7 8 7 7 5 7 11 16 18 21 23 21 15 17 20 20 20 15 15 19 19 26 23 25 21 22 20 24 16 16 15 17 18 13 13
10 11 11 11 9 9 8 8 12 15 24 12 7 7 8 4 7 8 12 17 19 21 21 17 11 16 21 22 14 18 8 16 27 23 23 22 16 17 23 20 22 16 21 20 11 13 13
10 10 11 11 9 9 8 7 10 11 12 8 6 11 8 5 9 11 16 18 14 16 17 14 17 17 17 20 19 17 17 10 20 20 14 13 8 9 20 16 12 18 19 19 18 14 17
9 10 10 11 10 9 7 7 8 9 8 7 7 6 6 6 11 16 14 15 15 9 13 16 17 20 19 17 20 17 18 20 16 10 12 9 10 15 13 17 17 11 22 18 17 11 14
9 9 9 11 9 8 8 7 8 10 7 6 7 5 13 7 7 9 15 15 12 16 13 13 11 17 18 18 19 19 19 18 16 5 6 6 10 15 15 18 13 13 14 19 19 18 15
9 8 9 11 10 9 8 7 8 10 12 5 7 11 12 14 16 15 12 12 11 14 16 18 14 10 18 16 18 20 19 18 13 7 14 15 10 12 19 19 18 14 18 24 25 22 20
9 9 9 11 11 11 8 8 7 8 8 6 9 11 9 10 16 15 7 11 10 11 11 21 15 15 15 18 15 14 19 18 17 5 1 8 10 8 15 4 25 8 16 17 9 14 6
10 9 9 12 12 11 10 8 8 7 6 7 9 8 9 12 15 9 4 9 15 10 16 11 21 11 12 16 14 13 17 17 21 9 8 6 21 7 10 9 15 4 15 21 8 16 22
10 9 9 12 14 12 11 9 8 7 6 7 9 8 7 11 15 15 4 10 11 11 18 13 14 9 9 12 9 11 13 18 18 16 14 18 13 9 8 11 5 4 12 11 14 19 16
11 10 10 12 14 13 12 11 9 7 6 7 8 8 6 9 11 20 15 14 13 9 14 16 3 19 15 10 8 12 12 15 15 17 13 7 4 7 10 14 15 4 9 19 39 13 11
11 10 9 12 15 14 13 12 10 7 6 6 8 9 6 11 18 15 15 11 13 14 11 8 12 12 17 8 6 5 11 10 5 9 13 12 10 13 11 10 7 12 15 20 6 7 10
8 9 9 11 14 14 13 12 10 8 6 5 8 6 6 9 18 21 19 14 12 11 10 13 10 4 8 6 5 5 3 7 2 4 12 6 8 11 12 14 10 15 5 7 7 8 11
8 9 9 12 15 14 13 12 10 8 6 4 8 4 4 8 13 25 23 23 22 19 13 9 3 6 8 6 4 7 5 6 5 4 28 2 3 12 6 5 10 15 16 10 8 8 8
Wind_Direction
25 22 19 16 11 9 5 2 359 357 355 351 347 343 339 336 332 328 325 321 317 315 313 313 317 326 322 255 261 124 147 164 181 218 224 237 243 258 266 278 293 302 271 299 316 301 337
21 18 16 13 10 7 3 0 358 355 351 348 345 340 337 334 330 326 321 317 313 310 308 309 313 315 255 268 132 134 173 162 195 210 231 249 248 266 279 302 294 292 299 305 296 284 278
17 15 14 11 9 5 0 358 356 352 349 346 342 338 334 331 328 324 319 314 309 304 301 302 300 271 266 255 291 153 177 197 205 210 238 237 258 271 279 277 276 282 278 289 264 268 258
12 11 8 9 5 5 359 356 352 351 346 342 340 336 332 329 325 321 317 312 304 297 293 287 272 243 261 270 266 206 199 209 215 226 245 267 286 281 273 277 281 281 279 271 266 257 200
6 4 4 5 1 2 356 354 350 349 344 337 337 334 331 327 324 320 316 308 297 284 260 270 240 225 269 124 218 239 214 219 215 231 242 250 263 266 264 251 256 247 255 264 259 265 186
0 359 357 359 358 356 351 352 349 345 343 334 336 332 329 324 321 320 317 295 278 288 204 234 255 276 250 247 225 220 214 223 227 222 236 232 240 254 247 247 256 262 236 235 246 247 191
348 350 352 351 349 349 349 349 345 339 339 334 335 331 327 322 320 319 330 317 246 190 224 256 242 221 281 230 233 206 206 215 235 247 230 227 232 241 248 244 239 260 284 298 307 311 321
329 334 339 341 342 345 343 339 338 336 335 334 335 332 327 324 316 313 286 284 46 321 295 272 273 270 264 280 235 210 229 206 214 229 231 239 233 241 251 268 277 288 293 278 277 282 281
315 318 325 331 334 338 336 337 338 336 334 332 333 328 327 321 313 290 290 291 344 301 277 278 268 258 250 243 237 235 213 212 221 226 235 241 241 234 241 233 254 260 264 274 281 288 290
298 307 316 323 328 332 332 333 335 334 331 330 329 327 328 328 289 329 288 17 306 313 277 276 254 236 241 241 235 235 240 221 220 233 225 240 246 251 260 232 261 265 264 251 254 260 271
281 291 302 311 319 323 324 327 328 329 325 324 321 323 325 318 306 293 330 331 316 278 274 285 250 226 217 229 231 225 223 235 228 231 240 256 257 254 237 253 260 248 262 276 288 275 265
267 272 280 290 299 311 319 323 324 324 323 320 318 319 327 301 219 261 280 311 290 241 250 259 279 283 210 215 230 233 220 215 236 233 244 250 252 263 231 242 239 255 262 254 260 264 258
258 260 264 276 292 304 312 316 319 320 321 318 315 307 299 293 255 345 321 284 238 242 274 250 254 269 217 233 235 221 232 225 212 232 226 244 251 255 255 261 255 242 240 245 240 237 242
259 259 261 264 276 291 301 310 315 318 318 316 313 307 247 232 245 266 273 253 250 266 247 271 287 289 278 231 232 232 234 235 212 221 233 232 238 239 247 227 241 247 234 245 250 250 271
260 256 256 257 265 280 297 307 314 320 319 322 313 295 256 219 223 242 250 235 242 254 275 289 322 299 283 276 269 228 226 234 227 219 237 247 254 238 227 232 220 233 258 246 263 277 279
263 256 254 256 261 277 296 310 320 321 321 323 313 293 254 119 160 229 238 254 278 277 277 292 283 292 296 290 281 276 269 243 229 236 230 229 250 259 265 248 219 220 235 242 254 262 278
268 253 248 248 256 269 290 309 319 323 325 316 267 277 106 153 191 234 245 258 262 255 263 279 303 293 297 299 308 312 310 264 305 242 239 241 244 251 241 254 238 198 226 243 263 256 244
282 257 245 240 243 259 281 309 320 333 332 322 291 273 123 208 236 237 252 260 262 276 288 282 231 277 287 297 319 295 267 341 338 318 236 229 235 238 247 251 206 225 238 220 244 258 269
279 272 246 230 231 245 269 299 314 335 359 319 283 291 265 222 256 250 278 258 246 273 280 274 279 279 262 282 287 291 301 334 277 268 9 326 245 239 237 232 252 208 239 243 218 227 259
279 273 249 217 222 235 256 280 302 317 345 307 278 290 185 214 258 280 291 297 309 258 259 276 287 290 291 269 268 273 280 288 310 290 340 311 286 287 242 242 204 252 226 231 235 225 225
281 278 250 210 216 226 242 262 289 305 334 295 250 288 348 270 323 324 312 298 308 305 306 235 262 254 264 280 282 277 274 277 272 286 286 300 292 298 283 264 284 293 285 255 237 253 253
282 269 242 210 210 217 233 252 282 306 324 254 294 333 340 303 296 292 266 261 275 289 339 316 306 255 281 263 254 272 274 277 286 316 341 319 274 283 279 281 287 234 239 239 244 230 241
283 272 237 211 206 210 222 242 275 312 332 291 338 341 304 291 291 278 327 314 266 305 282 315 309 269 262 258 304 276 247 270 275 315 257 341 302 245 276 7 294 355 249 331 234 267 359
267 263 243 212 205 207 213 227 255 289 327 308 298 315 293 290 286 338 348 313 287 300 298 318 296 283 321 334 308 298 298 265 257 256 146 40 310 298 283 271 248 3 321 345 105 82 58
265 255 247 214 201 204 208 219 238 266 302 293 305 291 298 293 292 299 0 247 289 302 311 310 306 329 306 288 276 253 256 268 266 240 206 175 245 296 292 283 311 341 7 341 29 36 49
263 242 243 214 199 197 203 212 227 251 294 284 278 298 280 288 250 343 323 295 300 305 301 318 108 302 305 283 288 243 234 229 229 246 249 206 226 265 285 296 300 76 359 345 277 79 28
260 240 239 211 195 193 202 207 218 233 271 289 294 293 274 284 273 301 314 342 316 325 299 318 324 303 307 283 30 296 294 323 245 243 242 208 230 237 240 253 247 29 174 217 353 88 38
251 235 233 208 193 191 199 205 214 225 255 281 298 278 296 290 291 282 299 305 299 302 328 345 307 290 284 30 73 335 309 341 319 19 320 54 334 243 240 248 234 6 37 23 36 40 44
259 239 223 203 186 188 195 203 212 222 246 283 273 230 301 272 288 304 286 276 266 273 290 303 26 302 340 316 26 109 319 328 346 63 239 187 138 298 12 72 87 79 100 78 62 58 43